Flag for Cambodia Weather past 2 weeks in Phnom Penh, Cambodia

Now
86 °F

Passing clouds.


Feels Like: 99 °F
Forecast: 77 / 95 °F
Wind: No wind

Location: Phnom-Penh / Pochentong

Current Time: Sep 19, 2014 at 9:52:25 PM

Latest Report: Sep 19, 2014 at 9:30 PM


Visibility: 5 mi

Pressure: 29.77 "Hg

Humidity: 79%

Dew point: 79 °F

Location of Phnom PenhLocation

Historic Weather in Phnom Penh — Graph

°F

Phnom Penh temperature yesterday

Maximum temperature yesterday: 93 °F (at 3:00 PM)
Minimum temperature yesterday: 77 °F (at 12:00 AM)
Average temperature yesterday: 85 °F

Past Weeks' High & Low Weather Summary

 TemperatureHumidityPressure
High93 °F (Sep 12, 3:00 PM)100% (Sep 4, 8:30 PM)29.86 "Hg (Sep 4, 8:30 PM)
Low75 °F (Sep 8, 4:30 PM)20% (Sep 12, 1:00 AM)29.56 "Hg (Sep 15, 3:30 PM)
Average83 °F78%29.73 "Hg
* Reported Sep 4 8:00 PM — Sep 19 8:30 PM, Phnom Penh, Weather by CustomWeather, © 2014

Note: Actual official high and low records may vary slightly from our data, if they occured in-between our weather recording intervals... More about our weather records

Advertising

Phnom Penh weather history for previous 24 hours

 ConditionsComfort  
Time TempWeatherWind HumidityBarometerVisibility
8:30 PM
Sep 19
86 °FPassing clouds.1 mph75%29.74 "Hg6 mi
8:00 PM86 °FPassing clouds.2 mph79%29.74 "Hg6 mi
7:30 PM88 °FPassing clouds.3 mph70%29.77 "Hg6 mi
7:00 PM88 °FPassing clouds.3 mph75%29.74 "Hg6 mi
6:30 PM86 °FPassing clouds.5 mph75%29.74 "Hg6 mi
6:00 PM88 °FPassing clouds.5 mph70%29.71 "HgN/A
5:30 PM90 °FScattered clouds.6 mph67%29.71 "HgN/A
5:00 PM91 °FScattered clouds.6 mph63%29.71 "HgN/A
4:30 PM91 °FScattered clouds.6 mph63%29.68 "HgN/A
4:00 PM91 °FScattered clouds.7 mph63%29.68 "HgN/A
3:30 PM91 °FScattered clouds.8 mph59%29.71 "HgN/A
3:00 PM91 °FScattered clouds.6 mph59%29.71 "HgN/A
2:30 PM91 °FScattered clouds.8 mph59%29.74 "HgN/A
2:00 PM91 °FScattered clouds.7 mph59%29.74 "HgN/A
1:30 PM91 °FScattered clouds.6 mph63%29.77 "HgN/A
1:00 PM91 °FScattered clouds.8 mph63%29.77 "HgN/A
12:30 PM91 °FScattered clouds.2 mph63%29.80 "HgN/A
12:00 PM91 °FScattered clouds.10 mph63%29.80 "HgN/A
11:30 AM90 °FScattered clouds.6 mph67%29.83 "HgN/A
11:00 AM90 °FPassing clouds.6 mph67%29.83 "HgN/A
9:30 AM88 °FPassing clouds.5 mph62%29.86 "HgN/A
9:00 AM88 °FPassing clouds.1 mph66%29.86 "HgN/A
8:30 AM86 °FSunny.2 mph70%29.86 "Hg10 mi
8:00 AM84 °FSunny.1 mph79%29.86 "Hg10 mi
7:30 AM82 °FSunny.2 mph84%29.83 "Hg10 mi
7:00 AM81 °FSunny.1 mph89%29.83 "Hg10 mi
6:30 AM79 °FSunny.1 mph94%29.83 "Hg10 mi
6:00 AM79 °FSunny.No wind94%29.80 "Hg10 mi
1:00 AM81 °FPassing clouds.2 mph89%29.80 "Hg6 mi
12:30 AM81 °FPassing clouds.1 mph94%29.80 "Hg6 mi
12:00 AM81 °FPassing clouds.1 mph94%29.80 "Hg6 mi
11:30 PM
Sep 18
82 °FPassing clouds.1 mph89%29.83 "Hg6 mi
11:00 PM81 °FPassing clouds.2 mph94%29.83 "Hg6 mi
10:30 PM82 °FPassing clouds.5 mph89%29.83 "Hg5 mi
10:00 PM82 °FPassing clouds.5 mph89%29.83 "Hg5 mi
9:30 PM81 °FPassing clouds.2 mph94%29.83 "Hg5 mi
9:00 PM82 °FPartly cloudy.2 mph84%29.83 "Hg6 mi
Weather by CustomWeather, © 2014

See weather overviewHow to use our weather pages